Change the Weather History Date:

Saturday, October 6, 2012

  Actual Average Record
Temperature  
Mean Temperature 36 °F -  
Max Temperature 44 °F 62 °F 86 °F (2007)
Min Temperature 28 °F 37 °F 19 °F (2001)
Degree Days  
Heating Degree Days 29    
Moisture  
Dew Point 25 °F    
Average Humidity 65    
Maximum Humidity 93    
Minimum Humidity 39    
Precipitation  
Precipitation 0.00 in - - ()
Sea Level Pressure  
Sea Level Pressure 30.29 in    
Wind  
Wind Speed 13 mph (NW)    
Max Wind Speed 20 mph    
Max Gust Speed 24 mph    
Visibility 10 miles    
Events      
Averages and records for this station are not official NWS values.
T = Trace of Precipitation, MM = Missing Value Source: NWS Daily Summary

Daily Weather History Graph

Daily Weather History Graph

Search for Another Location

Airport or City:

Trip Planner

Search our weather history database for the weather conditions in past years. The results will help you decide how hot, cold, wet, or windy it might be!

Date:

Astronomy

Oct. 06, 2012 Rise Set
Actual Time 7:29 AM CDT 6:54 PM CDT
Civil Twilight 6:59 AM CDT 7:23 PM CDT
Nautical Twilight 6:25 AM CDT 7:57 PM CDT
Astronomical Twilight 5:51 AM CDT 8:31 PM CDT
Moon 10:58 PM CDT (10/6) 1:37 PM CDT (10/6)
Length of Visible Light 12h 23m
Length of Day
11h 25m
Waning Gibbous, 65% of the Moon is Illuminated
Oct 6
Waning Gibbous
Oct 8
Last Quarter
Oct 15
New
Oct 21
First Quarter
Oct 29
Full

Hourly Weather History & Observations

Time (CDT) Temp. Windchill Dew Point Humidity Pressure Visibility Wind Dir Wind Speed Gust Speed Precip Events Conditions
12:13 AM 35.6 °F 25.2 °F 28.4 °F 75% 30.25 in 10.0 mi NW 18.4 mph - N/A   Mostly Cloudy
12:34 AM 35.6 °F 25.2 °F 28.4 °F 75% 30.25 in 10.0 mi NNW 18.4 mph 23.0 mph N/A   Overcast
12:53 AM 35.6 °F 25.2 °F 28.4 °F 75% 30.25 in 10.0 mi NNW 18.4 mph 23.0 mph N/A   Overcast
1:14 AM 35.6 °F 24.8 °F 28.4 °F 75% 30.25 in 10.0 mi NW 19.6 mph 23.0 mph N/A   Overcast
1:34 AM 35.6 °F 25.9 °F 28.4 °F 75% 30.25 in 10.0 mi NNW 16.1 mph 23.0 mph N/A   Overcast
1:54 AM 35.6 °F 26.6 °F 28.4 °F 75% 30.25 in 10.0 mi NNW 13.8 mph 24.2 mph N/A   Overcast
2:14 AM 35.6 °F 26.2 °F 28.4 °F 75% 30.26 in 10.0 mi NNW 15.0 mph 19.6 mph N/A   Overcast
2:34 AM 35.6 °F 26.6 °F 28.4 °F 75% 30.26 in 10.0 mi NNW 13.8 mph 19.6 mph N/A   Overcast
2:54 AM 35.6 °F 26.2 °F 28.4 °F 75% 30.26 in 10.0 mi NNW 15.0 mph 19.6 mph N/A   Overcast
3:14 AM 35.6 °F 26.2 °F 30.2 °F 81% 30.26 in 10.0 mi NNW 15.0 mph 20.7 mph N/A   Overcast
3:34 AM 35.6 °F 26.6 °F 30.2 °F 81% 30.26 in 10.0 mi NNW 13.8 mph 19.6 mph N/A   Overcast
3:54 AM 35.6 °F 26.6 °F 30.2 °F 81% 30.26 in 10.0 mi NNW 13.8 mph 19.6 mph N/A   Overcast
4:14 AM 35.6 °F 27.1 °F 30.2 °F 81% 30.26 in 10.0 mi NNW 12.7 mph - N/A   Overcast
4:34 AM 35.6 °F 27.1 °F 30.2 °F 81% 30.26 in 10.0 mi NNW 12.7 mph - N/A   Overcast
4:54 AM 35.6 °F 25.9 °F 28.4 °F 75% 30.26 in 10.0 mi NNW 16.1 mph 24.2 mph N/A   Overcast
5:14 AM 35.6 °F 26.2 °F 28.4 °F 75% 30.27 in 10.0 mi NNW 15.0 mph 18.4 mph N/A   Overcast
5:34 AM 35.6 °F 25.9 °F 28.4 °F 75% 30.27 in 10.0 mi NNW 16.1 mph - N/A   Overcast
5:53 AM 35.6 °F 25.9 °F 30.2 °F 81% 30.27 in 10.0 mi NNW 16.1 mph 21.9 mph N/A   Overcast
6:14 AM 35.6 °F 26.6 °F 30.2 °F 81% 30.28 in 10.0 mi NNW 13.8 mph 21.9 mph N/A   Overcast
6:34 AM 35.6 °F 26.2 °F 28.4 °F 75% 30.29 in 10.0 mi NNW 15.0 mph 20.7 mph N/A   Overcast
6:54 AM 35.6 °F 25.2 °F 28.4 °F 75% 30.29 in 10.0 mi NNW 18.4 mph 23.0 mph N/A   Overcast
7:14 AM 35.6 °F 26.6 °F 28.4 °F 75% 30.30 in 10.0 mi NNW 13.8 mph - N/A   Overcast
7:34 AM 35.6 °F 25.9 °F 28.4 °F 75% 30.31 in 10.0 mi NNW 16.1 mph 21.9 mph N/A   Overcast
7:54 AM 35.6 °F 26.6 °F 26.6 °F 70% 30.32 in 10.0 mi NNW 13.8 mph - N/A   Overcast
8:34 AM 35.6 °F 25.5 °F 28.4 °F 75% 30.33 in 10.0 mi NNW 17.3 mph 24.2 mph N/A   Mostly Cloudy
9:14 AM 35.6 °F 25.9 °F 28.4 °F 75% 30.34 in 10.0 mi NNW 16.1 mph - N/A   Mostly Cloudy
9:34 AM 35.6 °F 26.6 °F 26.6 °F 70% 30.35 in 10.0 mi NNW 13.8 mph - N/A   Overcast
9:54 AM 35.6 °F 26.6 °F 26.6 °F 70% 30.35 in 10.0 mi NNW 13.8 mph 20.7 mph N/A   Mostly Cloudy
10:13 AM 35.6 °F 27.5 °F 26.6 °F 70% 30.35 in 10.0 mi NW 11.5 mph - N/A   Mostly Cloudy
10:34 AM 37.4 °F 28.5 °F 26.6 °F 65% 30.36 in 10.0 mi NW 15.0 mph - N/A   Mostly Cloudy
10:53 AM 39.2 °F 30.8 °F 26.6 °F 61% 30.36 in 10.0 mi North 15.0 mph - N/A   Overcast
11:14 AM 39.2 °F 31.6 °F 24.8 °F 56% 30.35 in 10.0 mi NW 12.7 mph - N/A   Mostly Cloudy
11:34 AM 39.2 °F 31.2 °F 24.8 °F 56% 30.35 in 10.0 mi NNW 13.8 mph 19.6 mph N/A   Mostly Cloudy
11:54 AM 39.2 °F 31.2 °F 24.8 °F 56% 30.35 in 10.0 mi NW 13.8 mph 18.4 mph N/A   Overcast
12:14 PM 39.2 °F 32.0 °F 24.8 °F 56% 30.35 in 10.0 mi NNW 11.5 mph - N/A   Overcast
12:33 PM 39.2 °F 32.5 °F 24.8 °F 56% 30.35 in 10.0 mi NNW 10.4 mph 17.3 mph N/A   Overcast
12:53 PM 39.2 °F 33.0 °F 24.8 °F 56% 30.35 in 10.0 mi NNW 9.2 mph - N/A   Overcast
1:14 PM 39.2 °F 32.0 °F 24.8 °F 56% 30.35 in 10.0 mi North 11.5 mph 17.3 mph N/A   Overcast
1:34 PM 39.2 °F 33.0 °F 24.8 °F 56% 30.34 in 10.0 mi NW 9.2 mph - N/A   Overcast
1:54 PM 41.0 °F 33.9 °F 23.0 °F 49% 30.33 in 10.0 mi North 12.7 mph - N/A   Overcast
2:13 PM 42.8 °F 37.5 °F 21.2 °F 42% 30.32 in 10.0 mi NNW 9.2 mph 16.1 mph N/A   Mostly Cloudy
2:33 PM 42.8 °F 36.6 °F 23.0 °F 46% 30.32 in 10.0 mi NNW 11.5 mph - N/A   Overcast
2:54 PM 42.8 °F 36.6 °F 21.2 °F 42% 30.31 in 10.0 mi NW 11.5 mph - N/A   Overcast
3:13 PM 42.8 °F 36.2 °F 23.0 °F 46% 30.30 in 10.0 mi NNW 12.7 mph 17.3 mph N/A   Overcast
3:34 PM 44.6 °F 39.7 °F 21.2 °F 39% 30.30 in 10.0 mi North 9.2 mph - N/A   Mostly Cloudy
3:53 PM 44.6 °F 40.2 °F 21.2 °F 39% 30.29 in 10.0 mi NNW 8.1 mph - N/A   Scattered Clouds
4:13 PM 44.6 °F 38.8 °F 21.2 °F 39% 30.28 in 10.0 mi NNW 11.5 mph 16.1 mph N/A   Scattered Clouds
4:31 PM 44.6 °F 38.4 °F 21.2 °F 39% 30.28 in 10.0 mi North 12.7 mph - N/A   Scattered Clouds
4:53 PM 42.8 °F 37.5 °F 21.2 °F 42% 30.28 in 10.0 mi NNW 9.2 mph - N/A   Scattered Clouds
5:13 PM 44.6 °F 40.2 °F 21.2 °F 39% 30.27 in 10.0 mi NNW 8.1 mph - N/A   Clear
5:33 PM 44.6 °F 40.2 °F 21.2 °F 39% 30.27 in 10.0 mi North 8.1 mph 18.4 mph N/A   Clear
5:53 PM 44.6 °F 41.4 °F 21.2 °F 39% 30.27 in 10.0 mi North 5.8 mph - N/A   Clear
6:13 PM 42.8 °F 38.0 °F 21.2 °F 42% 30.27 in 10.0 mi NNW 8.1 mph - N/A   Clear
6:34 PM 41.0 °F 39.0 °F 21.2 °F 45% 30.27 in 10.0 mi NNW 3.5 mph - N/A   Clear
6:53 PM 39.2 °F 35.9 °F 21.2 °F 49% 30.27 in 10.0 mi NW 4.6 mph - N/A   Clear
7:13 PM 35.6 °F 31.7 °F 19.4 °F 52% 30.27 in 10.0 mi WNW 4.6 mph - N/A   Clear
7:33 PM 33.8 °F 30.8 °F 19.4 °F 56% 30.27 in 10.0 mi West 3.5 mph - N/A   Clear
7:54 PM 30.2 °F - 19.4 °F 64% 30.28 in 10.0 mi Calm Calm - N/A   Clear
8:14 PM 30.2 °F 26.7 °F 19.4 °F 64% 30.27 in 10.0 mi West 3.5 mph - N/A   Clear
8:33 PM 30.2 °F - 21.2 °F 69% 30.27 in 10.0 mi Calm Calm - N/A   Clear
8:53 PM 30.2 °F 25.4 °F 21.2 °F 69% 30.27 in 10.0 mi WSW 4.6 mph - N/A   Clear
9:13 PM 30.2 °F - 21.2 °F 69% 30.27 in 10.0 mi Calm Calm - N/A   Clear
9:33 PM 30.2 °F 26.7 °F 24.8 °F 80% 30.27 in 10.0 mi SSW 3.5 mph - N/A   Clear
9:53 PM 28.4 °F 24.6 °F 24.8 °F 86% 30.27 in 10.0 mi SW 3.5 mph - N/A   Clear
10:13 PM 28.4 °F 24.6 °F 26.6 °F 93% 30.27 in 10.0 mi SW 3.5 mph - N/A   Clear
10:33 PM 28.4 °F - 24.8 °F 86% 30.26 in 10.0 mi Calm Calm - N/A   Clear
10:53 PM 28.4 °F 23.3 °F 21.2 °F 74% 30.26 in 10.0 mi SW 4.6 mph - N/A   Clear
11:13 PM 30.2 °F 23.4 °F 21.2 °F 69% 30.25 in 10.0 mi SW 6.9 mph - N/A   Clear
11:33 PM 28.4 °F 23.3 °F 21.2 °F 74% 30.24 in 10.0 mi SW 4.6 mph - N/A   Clear
11:53 PM 28.4 °F 23.3 °F 21.2 °F 74% 30.23 in 10.0 mi SSW 4.6 mph - N/A   Clear